Showing default

HAWK-9C, 59448

Orbit data source: Space-Track

HAWK-9C, 59448 is a payload satellite owned by HawkEye 360 (US) in LEO that was launched on Sun, 07 Apr 2024 UTC via an FALCON 9 launch vehicle from the Air Force Eastern Test Range (AFETR). Payload-class satellites include a variety of spacecraft equipped with specific instruments for various scientific and technological missions. These include communications satellites like Starlink; space stations such as the ISS; scientific satellites like the Hubble; Earth observation satellites from companies like Planet Labs, Umbra, and HawkEye 360; GPS; miniature CubeSats for education and research; and military/defense satellites.

Loading next visibility...
Identifier
59448, 2024-066G
Orbit
LEO
Country
Flag of USUS
Related business
Manufacturer
UTIAS-SFL
Mission
Operational Commercial Sigint
Bus & Motor
HAWK2G, Unknown motor
Mass
31 kg wet, 30 kg dry
Launch date (UTC)
2024-04-07 (2 years ago)
Launch vehicle
FALCON 9
Launch site
Air Force Eastern Test Range (AFETR)
Object type
Payload
Rocket body
Debris
Shape & HBR
Box + 2 Pan, 1.0 m
Radar Cross Section
0.240 m², Medium (>0.1 m² and < 1m²)

Expand to show TLE details & history
Last TLE update: 19 hours ago

TLE from 19 hours ago
0 HAWK-9C
1 59448U 24066G   25293.81716531  .00005079  00000-0  44442-3 0  9993
2 59448  45.5963  72.8327 0004073 208.3242 151.7418 14.97851729 83920
Epoch: 2025-10-20T19:36Z
TLE epoch observation values (Epoch: 2025-10-20T19:36:43.082Z)
Latitude
-0.00001°
Longitude
109.13915°
Altitude
576.094 km
Speed
7.573 km/s
True Right ascension
04h 51m 19s
True Declination
0° 00' 00"
Sunlit
Object was in full shadow at epoch
Visualization orbit readout
Latitude
Unknown
Longitude
Unknown
Altitude
Unknown
Speed
Unknown
Apparent Right ascension
Unknown
Apparent Declination
Unknown
Sunlit
N/A
Visualization observer readout
Local Sidereal Time
09:07:24
Azimuth
Unknown
Elevation
Unknown
Doppler factor
Unknown
Orbital elements
Apogee altitude
577.857 km
Perigee altitude
572.193 km
Semi-major axis
6,953.162 km
Eccentricity
0.00041
Inclination
45.5963°
RAAN
72.8327°
Arg. of periapsis
208.3242°
True anomaly
151.76389°
Mean anomaly
151.7418°
Eccentric anomaly
151.75284°
Mean motion
3.74343 °/min
Orbital period
96.17 mins
BSTAR
0.00044442
Loading maneuver chart data...
Computing Atmospheric mass density...
Loading historical data...
Loading historical data...
Loading historical data...
Loading historical data...
Loading historical data...
Loading historical data...
Loading historical data...

Documentation

Showing up to 5 results
|